Time,TemperatureF,DewpointF,PressureIn,WindDirection,WindDirectionDegrees,WindSpeedMPH,WindSpeedGustMPH,Humidity,HourlyPrecipIn,Conditions,Clouds,dailyrainin,SoftwareType,DateUTC
2013-09-17 00:09:00,63.3,59.0,30.12,WNW,301,2.0,3.0,86,0.00,,,0.00,weatherlink.com 1.10,2013-09-17 04:09:00,
2013-09-17 00:24:00,63.7,60.0,30.13,WNW,290,3.0,3.0,87,0.00,,,0.00,weatherlink.com 1.10,2013-09-17 04:24:00,
2013-09-17 00:39:00,64.1,61.0,30.12,WNW,287,0.0,3.0,88,0.00,,,0.00,weatherlink.com 1.10,2013-09-17 04:39:00,
2013-09-17 00:54:00,64.3,61.0,30.12,WNW,287,2.0,2.0,88,0.00,,,0.00,weatherlink.com 1.10,2013-09-17 04:54:00,
2013-09-17 01:09:00,65.2,61.0,30.12,WNW,291,0.0,1.0,86,0.00,,,0.00,weatherlink.com 1.10,2013-09-17 05:09:00,
2013-09-17 01:24:00,65.1,61.0,30.12,WNW,287,0.0,2.0,85,0.00,,,0.00,weatherlink.com 1.10,2013-09-17 05:24:00,
2013-09-17 01:39:00,65.8,60.0,30.12,ENE,70,0.0,3.0,80,0.00,,,0.00,weatherlink.com 1.10,2013-09-17 05:39:00,
2013-09-17 01:54:00,66.7,60.0,30.12,WNW,283,0.0,5.0,78,0.00,,,0.00,weatherlink.com 1.10,2013-09-17 05:54:00,
2013-09-17 02:09:00,66.6,60.0,30.12,WNW,302,0.0,5.0,78,0.00,,,0.00,weatherlink.com 1.10,2013-09-17 06:09:00,
2013-09-17 02:24:00,66.2,59.0,30.12,West,259,0.0,2.0,78,0.00,,,0.00,weatherlink.com 1.10,2013-09-17 06:24:00,
2013-09-17 02:40:00,65.9,59.0,30.12,WNW,290,0.0,3.0,79,0.00,,,0.00,weatherlink.com 1.10,2013-09-17 06:40:00,
2013-09-17 02:54:00,65.6,59.0,30.12,NNW,345,0.0,3.0,78,0.00,,,0.00,weatherlink.com 1.10,2013-09-17 06:54:00,
2013-09-17 03:09:00,65.4,59.0,30.11,West,280,1.0,3.0,80,0.00,,,0.00,weatherlink.com 1.10,2013-09-17 07:09:00,
2013-09-17 03:24:00,65.2,59.0,30.11,WNW,295,0.0,4.0,79,0.00,,,0.00,weatherlink.com 1.10,2013-09-17 07:24:00,
2013-09-17 03:39:00,65.2,59.0,30.11,WSW,255,0.0,2.0,80,0.00,,,0.00,weatherlink.com 1.10,2013-09-17 07:39:00,
2013-09-17 03:54:00,64.5,59.0,30.11,WNW,283,0.0,2.0,82,0.00,,,0.00,weatherlink.com 1.10,2013-09-17 07:54:00,
2013-09-17 04:09:00,64.1,59.0,30.11,West,278,0.0,2.0,83,0.00,,,0.00,weatherlink.com 1.10,2013-09-17 08:09:00,
2013-09-17 04:24:00,64.2,59.0,30.11,South,172,0.0,2.0,83,0.00,,,0.00,weatherlink.com 1.10,2013-09-17 08:24:00,
2013-09-17 04:39:00,64.1,59.0,30.12,WNW,288,0.0,3.0,82,0.00,,,0.00,weatherlink.com 1.10,2013-09-17 08:39:00,
2013-09-17 04:54:00,63.2,58.0,30.12,WNW,293,3.0,3.0,84,0.00,,,0.00,weatherlink.com 1.10,2013-09-17 08:54:00,
2013-09-17 05:09:00,62.9,58.0,30.12,WNW,287,2.0,2.0,84,0.00,,,0.00,weatherlink.com 1.10,2013-09-17 09:09:00,
2013-09-17 05:24:00,62.2,58.0,30.12,WNW,288,1.0,3.0,86,0.00,,,0.00,weatherlink.com 1.10,2013-09-17 09:24:00,
2013-09-17 05:40:00,62.0,58.0,30.13,WNW,288,1.0,3.0,86,0.00,,,0.00,weatherlink.com 1.10,2013-09-17 09:40:00,
2013-09-17 05:55:00,62.0,59.0,30.13,WNW,287,0.0,1.0,88,0.00,,,0.00,weatherlink.com 1.10,2013-09-17 09:55:00,
2013-09-17 06:10:00,61.7,58.0,30.13,WNW,287,0.0,1.0,88,0.00,,,0.00,weatherlink.com 1.10,2013-09-17 10:10:00,
2013-09-17 06:25:00,61.7,58.0,30.13,WNW,293,0.0,3.0,88,0.00,,,0.00,weatherlink.com 1.10,2013-09-17 10:25:00,
2013-09-17 06:40:00,61.0,58.0,30.14,WNW,291,0.0,1.0,89,0.00,,,0.00,weatherlink.com 1.10,2013-09-17 10:40:00,
2013-09-17 06:55:00,60.4,58.0,30.14,WNW,300,1.0,2.0,90,0.00,,,0.00,weatherlink.com 1.10,2013-09-17 10:55:00,
2013-09-17 07:10:00,60.0,57.0,30.14,WNW,283,0.0,2.0,91,0.00,,,0.00,weatherlink.com 1.10,2013-09-17 11:10:00,
2013-09-17 07:25:00,59.8,57.0,30.15,West,266,0.0,1.0,91,0.00,,,0.00,weatherlink.com 1.10,2013-09-17 11:25:00,
2013-09-17 07:40:00,59.3,57.0,30.16,WNW,291,0.0,1.0,92,0.00,,,0.00,weatherlink.com 1.10,2013-09-17 11:40:00,
2013-09-17 07:55:00,58.9,57.0,30.16,WNW,291,0.0,2.0,93,0.00,,,0.00,weatherlink.com 1.10,2013-09-17 11:55:00,
2013-09-17 08:10:00,59.1,57.0,30.16,WNW,291,0.0,1.0,93,0.00,,,0.00,weatherlink.com 1.10,2013-09-17 12:10:00,
2013-09-17 08:25:00,60.1,58.0,30.17,West,276,0.0,1.0,91,0.00,,,0.00,weatherlink.com 1.10,2013-09-17 12:25:00,
2013-09-17 08:40:00,61.2,58.0,30.18,ENE,62,0.0,1.0,89,0.00,,,0.00,weatherlink.com 1.10,2013-09-17 12:40:00,
2013-09-17 08:55:00,61.4,58.0,30.18,East,91,0.0,1.0,89,0.00,,,0.00,weatherlink.com 1.10,2013-09-17 12:55:00,
2013-09-17 09:10:00,61.7,58.0,30.18,East,92,0.0,1.0,88,0.00,,,0.00,weatherlink.com 1.10,2013-09-17 13:10:00,
2013-09-17 09:25:00,61.9,58.0,30.19,ENE,78,0.0,1.0,88,0.00,,,0.00,weatherlink.com 1.10,2013-09-17 13:25:00,
2013-09-17 09:40:00,62.0,58.0,30.19,NNE,31,1.0,1.0,87,0.00,,,0.00,weatherlink.com 1.10,2013-09-17 13:40:00,
2013-09-17 09:55:00,62.4,58.0,30.20,ENE,57,0.0,1.0,86,0.00,,,0.00,weatherlink.com 1.10,2013-09-17 13:55:00,
2013-09-17 10:10:00,62.5,58.0,30.20,NNE,20,0.0,4.0,85,0.00,,,0.00,weatherlink.com 1.10,2013-09-17 14:10:00,
2013-09-17 10:25:00,62.7,58.0,30.21,East,86,0.0,6.0,84,0.00,,,0.00,weatherlink.com 1.10,2013-09-17 14:25:00,
2013-09-17 10:40:00,62.8,57.0,30.21,NW,315,0.0,3.0,81,0.00,,,0.00,weatherlink.com 1.10,2013-09-17 14:40:00,
2013-09-17 10:55:00,63.3,56.0,30.22,ENE,60,3.0,7.0,78,0.00,,,0.00,weatherlink.com 1.10,2013-09-17 14:55:00,
2013-09-17 11:10:00,63.1,56.0,30.22,West,281,1.0,5.0,77,0.00,,,0.00,weatherlink.com 1.10,2013-09-17 15:10:00,
2013-09-17 11:25:00,64.4,56.0,30.22,NE,51,2.0,5.0,74,0.00,,,0.00,weatherlink.com 1.10,2013-09-17 15:25:00,
2013-09-17 11:40:00,64.6,56.0,30.22,NE,52,2.0,5.0,73,0.00,,,0.00,weatherlink.com 1.10,2013-09-17 15:40:00,
2013-09-17 11:55:00,64.7,55.0,30.22,WSW,239,0.0,6.0,72,0.00,,,0.00,weatherlink.com 1.10,2013-09-17 15:55:00,
2013-09-17 12:10:00,64.0,55.0,30.22,North,354,1.0,4.0,73,0.00,,,0.00,weatherlink.com 1.10,2013-09-17 16:10:00,
2013-09-17 12:25:00,63.7,55.0,30.22,ESE,112,4.0,4.0,74,0.00,,,0.00,weatherlink.com 1.10,2013-09-17 16:25:00,
2013-09-17 12:40:00,62.8,55.0,30.22,NE,38,0.0,2.0,76,0.00,,,0.00,weatherlink.com 1.10,2013-09-17 16:40:00,
2013-09-17 12:55:00,62.3,55.0,30.22,West,280,0.0,6.0,77,0.00,,,0.00,weatherlink.com 1.10,2013-09-17 16:55:00,
2013-09-17 13:10:00,62.2,55.0,30.22,North,354,0.0,5.0,76,0.00,,,0.00,weatherlink.com 1.10,2013-09-17 17:10:00,
2013-09-17 13:25:00,62.5,55.0,30.22,NE,56,3.0,5.0,77,0.00,,,0.00,weatherlink.com 1.10,2013-09-17 17:25:00,
2013-09-17 13:40:00,63.6,56.0,30.21,ENE,72,2.0,2.0,77,0.00,,,0.00,weatherlink.com 1.10,2013-09-17 17:40:00,
2013-09-17 13:55:00,64.1,56.0,30.21,East,97,0.0,4.0,75,0.00,,,0.00,weatherlink.com 1.10,2013-09-17 17:55:00,
2013-09-17 14:10:00,64.5,56.0,30.20,NE,38,2.0,5.0,73,0.00,,,0.00,weatherlink.com 1.10,2013-09-17 18:10:00,
2013-09-17 14:25:00,65.0,57.0,30.20,NE,34,2.0,7.0,74,0.00,,,0.00,weatherlink.com 1.10,2013-09-17 18:25:00,
2013-09-17 14:40:00,65.0,56.0,30.20,ENE,57,0.0,7.0,73,0.00,,,0.00,weatherlink.com 1.10,2013-09-17 18:40:00,
2013-09-17 14:55:00,65.3,56.0,30.19,ENE,67,2.0,4.0,73,0.00,,,0.00,weatherlink.com 1.10,2013-09-17 18:55:00,
2013-09-17 15:10:00,65.4,57.0,30.18,North,3,1.0,6.0,73,0.00,,,0.00,weatherlink.com 1.10,2013-09-17 19:10:00,
2013-09-17 15:26:00,65.1,57.0,30.17,East,87,0.0,4.0,74,0.00,,,0.00,weatherlink.com 1.10,2013-09-17 19:26:00,
2013-09-17 15:40:00,65.6,57.0,30.17,NE,49,2.0,4.0,74,0.00,,,0.00,weatherlink.com 1.10,2013-09-17 19:40:00,
2013-09-17 15:55:00,65.3,57.0,30.16,ENE,76,6.0,8.0,75,0.00,,,0.00,weatherlink.com 1.10,2013-09-17 19:55:00,
2013-09-17 16:10:00,65.0,57.0,30.16,East,98,2.0,4.0,75,0.00,,,0.00,weatherlink.com 1.10,2013-09-17 20:10:00,
2013-09-17 16:26:00,64.8,57.0,30.16,NNE,16,1.0,4.0,75,0.00,,,0.00,weatherlink.com 1.10,2013-09-17 20:26:00,
2013-09-17 16:41:00,64.4,57.0,30.17,NE,46,3.0,4.0,76,0.00,,,0.00,weatherlink.com 1.10,2013-09-17 20:41:00,
2013-09-17 16:56:00,64.0,56.0,30.16,NE,56,2.0,6.0,76,0.00,,,0.00,weatherlink.com 1.10,2013-09-17 20:56:00,
2013-09-17 17:11:00,64.0,56.0,30.16,WNW,291,0.0,2.0,76,0.00,,,0.00,weatherlink.com 1.10,2013-09-17 21:11:00,
2013-09-17 17:26:00,64.1,56.0,30.16,NNE,33,1.0,3.0,76,0.00,,,0.00,weatherlink.com 1.10,2013-09-17 21:26:00,
2013-09-17 17:41:00,63.7,56.0,30.16,East,84,0.0,6.0,77,0.00,,,0.00,weatherlink.com 1.10,2013-09-17 21:41:00,
2013-09-17 17:56:00,63.1,56.0,30.16,ENE,68,0.0,4.0,78,0.00,,,0.00,weatherlink.com 1.10,2013-09-17 21:56:00,
2013-09-17 18:11:00,62.6,56.0,30.16,West,259,0.0,2.0,79,0.00,,,0.00,weatherlink.com 1.10,2013-09-17 22:11:00,
2013-09-17 18:26:00,62.2,56.0,30.16,West,259,0.0,1.0,79,0.00,,,0.00,weatherlink.com 1.10,2013-09-17 22:26:00,
2013-09-17 18:41:00,62.2,56.0,30.16,WSW,257,0.0,0.0,81,0.00,,,0.00,weatherlink.com 1.10,2013-09-17 22:41:00,
2013-09-17 18:56:00,61.6,56.0,30.16,West,259,0.0,0.0,82,0.00,,,0.00,weatherlink.com 1.10,2013-09-17 22:56:00,
2013-09-17 19:11:00,61.1,56.0,30.16,North,355,0.0,0.0,83,0.00,,,0.00,weatherlink.com 1.10,2013-09-17 23:11:00,
2013-09-17 19:26:00,60.6,55.0,30.17,North,6,0.0,1.0,83,0.00,,,0.00,weatherlink.com 1.10,2013-09-17 23:26:00,
2013-09-17 19:41:00,60.2,55.0,30.17,NNW,332,0.0,4.0,82,0.00,,,0.00,weatherlink.com 1.10,2013-09-17 23:41:00,
2013-09-17 19:56:00,60.0,54.0,30.17,SW,221,0.0,1.0,81,0.00,,,0.00,weatherlink.com 1.10,2013-09-17 23:56:00,
2013-09-17 20:11:00,59.4,55.0,30.18,West,260,0.0,0.0,85,0.00,,,0.00,weatherlink.com 1.10,2013-09-18 00:11:00,
2013-09-17 20:26:00,59.0,55.0,30.18,West,267,0.0,1.0,86,0.00,,,0.00,weatherlink.com 1.10,2013-09-18 00:26:00,
2013-09-17 20:41:00,58.6,55.0,30.18,West,267,0.0,1.0,87,0.00,,,0.00,weatherlink.com 1.10,2013-09-18 00:41:00,
2013-09-17 20:56:00,58.2,54.0,30.19,West,281,0.0,1.0,87,0.00,,,0.00,weatherlink.com 1.10,2013-09-18 00:56:00,
2013-09-17 21:11:00,57.8,54.0,30.19,West,281,0.0,2.0,88,0.00,,,0.00,weatherlink.com 1.10,2013-09-18 01:11:00,
2013-09-17 21:26:00,57.6,54.0,30.19,WNW,283,0.0,1.0,88,0.00,,,0.00,weatherlink.com 1.10,2013-09-18 01:26:00,
2013-09-17 21:41:00,57.5,54.0,30.20,WNW,284,0.0,1.0,89,0.00,,,0.00,weatherlink.com 1.10,2013-09-18 01:41:00,
2013-09-17 21:56:00,58.2,55.0,30.20,NE,47,0.0,1.0,89,0.00,,,0.00,weatherlink.com 1.10,2013-09-18 01:56:00,
2013-09-17 22:11:00,58.5,55.0,30.21,NE,47,0.0,-999.0,89,-99.99,,,0.00,weatherlink.com 1.10,2013-09-18 02:11:00,
2013-09-17 22:26:00,58.5,55.0,30.21,WNW,295,0.0,2.0,89,0.00,,,0.00,weatherlink.com 1.10,2013-09-18 02:26:00,
2013-09-17 22:41:00,58.6,55.0,30.21,WNW,295,0.0,1.0,89,0.00,,,0.00,weatherlink.com 1.10,2013-09-18 02:41:00,
2013-09-17 22:56:00,58.7,56.0,30.21,WNW,298,0.0,1.0,89,0.00,,,0.00,weatherlink.com 1.10,2013-09-18 02:56:00,
2013-09-17 23:11:00,58.7,55.0,30.21,NW,318,1.0,2.0,88,0.00,,,0.00,weatherlink.com 1.10,2013-09-18 03:11:00,
2013-09-17 23:26:00,59.0,55.0,30.21,West,274,1.0,1.0,87,0.00,,,0.00,weatherlink.com 1.10,2013-09-18 03:26:00,
2013-09-17 23:41:00,59.2,55.0,30.21,ENE,70,3.0,5.0,86,0.00,,,0.00,weatherlink.com 1.10,2013-09-18 03:41:00,
2013-09-17 23:56:00,59.4,55.0,30.22,WSW,242,0.0,4.0,85,0.00,,,0.00,weatherlink.com 1.10,2013-09-18 03:56:00,